This is the latest recevied weather packets stored in our database for station/object N2XP-3. If no packets are shown the sender has not sent any weather packets the latest 1 day(s).
| Time | Temp. | Humidity | Pressure | Rain* | Wind** | Luminosity | Snow |
|---|---|---|---|---|---|---|---|
| 1778074710 | 18.33° C | 80% | 1006.7 hPa | 0 mm | 2.24 m/s, 236° | - | - |
| 1778074111 | 18.33° C | 79% | 1006.8 hPa | 0 mm | 0.45 m/s, 205° | - | - |
| 1778073808 | 18.33° C | 79% | 1006.8 hPa | 0 mm | 1.79 m/s, 197° | - | - |
| 1778072905 | 18.33° C | 80% | 1006.7 hPa | 0 mm | 2.24 m/s, 293° | - | - |
| 1778072000 | 18.33° C | 81% | 1006.9 hPa | 0 mm | 1.34 m/s, 285° | - | - |
| 1778071095 | 18.33° C | 81% | 1006.5 hPa | 0 mm | 2.68 m/s, 203° | - | - |
| 1778070193 | 18.33° C | 82% | 1006.6 hPa | 0 mm | 2.24 m/s, 242° | - | - |
| 1778069593 | 17.78° C | 84% | 1006.7 hPa | 0 mm | 1.34 m/s, 294° | - | - |
| 1778068071 | 17.22° C | 85% | 1006.9 hPa | 0 mm | 0.89 m/s, 243° | - | - |
| 1778066267 | 16.67° C | 87% | 1006.9 hPa | 0 mm | 1.34 m/s, 248° | - | - |
| 1778065662 | 16.67° C | 88% | 1006.8 hPa | 0 mm | 0.89 m/s, 188° | - | - |
| 1778065362 | 16.67° C | 88% | 1006.9 hPa | 0 mm | 0.89 m/s, 283° | - | - |
| 1778064758 | 16.67° C | 90% | 1006.7 hPa | 0 mm | 1.79 m/s, 302° | - | - |
| 1778062948 | 16.11° C | 91% | 1006.7 hPa | 0 mm | 1.34 m/s, 312° | - | - |
| 1778062041 | 15.56° C | 91% | 1006.5 hPa | 0 mm | 0.89 m/s, 255° | - | - |
| 1778061442 | 15.56° C | 91% | 1006.5 hPa | 0 mm | 1.34 m/s, 240° | - | - |
| 1778061136 | 15.56° C | 91% | 1006.6 hPa | 0 mm | 2.24 m/s, 242° | - | - |
| 1778060530 | 15.56° C | 91% | 1006.4 hPa | 0 mm | 0 m/s | - | - |
| 1778059626 | 15.56° C | 91% | 1006.5 hPa | 0 mm | 0.45 m/s, 225° | - | - |
| 1778059010 | 15.56° C | 91% | 1006.6 hPa | 0 mm | 0 m/s | - | - |
| 1778058743 | 15° C | 91% | 1006.6 hPa | 0 mm | 1.79 m/s, 270° | - | - |
| 1778058102 | 15° C | 91% | 1006.6 hPa | 0 mm | 0.89 m/s, 200° | - | - |
| 1778057198 | 15° C | 90% | 1006.7 hPa | 0 mm | 0.89 m/s, 281° | - | - |
| 1778056590 | 15° C | 89% | 1006.8 hPa | 0 mm | 0 m/s | - | - |
| 1778056291 | 15° C | 89% | 1006.8 hPa | 0 mm | 0 m/s | - | - |
* Rain latest hour (hover to see other rain measurements)
** Current wind speed in m/s (hover to see current wind gust speed)